Regional Weather Roundup
Issued by NWS

Home | Current Version | Previous Version | Text Only | Print | Product List | Glossary On
Versions: 1 2 3 4 5 6 7 8 9 10 11 12 13 14 15 16 17 18 19 20 21 22 23 24 25 26 27 28 29 30 31 32 33 34 35 36 37 38 39 40 41 42 43 44 45 46 47 48 49 50
000
ASUS43 KMKX 051321
RWRWI

WISCONSIN REGIONAL WEATHER ROUNDUP
NATIONAL WEATHER SERVICE MILWAUKEE/SULLIVAN WI
800 AM CDT SUN JUL 05 2015

NOTE: "FAIR" INDICATES FEW OR NO CLOUDS BELOW 12,000 FEET WITH NO
SIGNIFICANT WEATHER AND/OR OBSTRUCTIONS TO VISIBILITY.

WIZ001-002-006>008-014>016-023>028-051400-
NORTHWEST WISCONSIN

CITY           SKY/WX    TMP DP  RH WIND       PRES   REMARKS
SUPERIOR ARPT  PTSUNNY   58  58  97 CALM      29.92S
ASHLAND        PTSUNNY   69  65  86 S8        29.94S
HAYWARD        MOSUNNY   69  61  75 S9        29.98R
SIREN          PTSUNNY   70  60  71 S7        29.96R
CUMBERLAND     MOSUNNY   66  61  82 S8        29.98S
RICE LAKE      MOSUNNY   68  61  80 S6        30.00R
CHETEK         MOSUNNY   67  63  86 SE3       29.99S
LADYSMITH      SUNNY     67  63  86 S6        30.02R
EAU CLAIRE     SUNNY     69  60  73 S10       29.98F
MENOMONIE      SUNNY     67  63  87 SE5       29.99S
NEW RICHMOND   MOSUNNY   68  60  75 S8        29.97R
OSCEOLA        MOSUNNY   68  65  90 S9        29.99R
$$

WIZ003>005-009-010-017-018-051400-
NORTH CENTRAL WISCONSIN

CITY           SKY/WX    TMP DP  RH WIND       PRES   REMARKS
MANITOWISH WTR SUNNY     66  65  94 SW8       30.01S
ARBOR VITAE    SUNNY     67  63  85 SW7       30.01F
WOODRUFF       SUNNY     67  63  85 SW7       30.01F
RHINELANDER    MOSUNNY   67  62  84 S7        30.03F
EAGLE RIVER    SUNNY     66  63  88 SW3       30.02F FOG
LAND O LAKES   SUNNY     65  65 100 S5        30.02F FOG
PHILLIPS       PTSUNNY   67  62  86 SW7       30.01R
TOMAHAWK       SUNNY     64  63  97 CALM      30.02F FOG
MEDFORD        SUNNY     65  63  91 S8        30.02F
MERRILL        MOSUNNY   66  65  99 S3        30.03F FOG
$$

WIZ029-030-035-036-043>047-051400-
CENTRAL WISCONSIN

CITY           SKY/WX    TMP DP  RH WIND       PRES   REMARKS
WAUSAU         MOSUNNY   68  62  81 S7        30.02F
MOSINEE        MOSUNNY   66  64  94 S5        30.05F
MARSHFIELD     SUNNY     66  61  84 S7        30.03F
STEVENS POINT  SUNNY     67  60  78 SW5       30.06S
WAUPACA        MOSUNNY   66  65  97 CALM      30.06S FOG
WAUTOMA        MOSUNNY   66  64  93 CALM      30.06F
WISC RAPIDS    SUNNY     68  61  78 SW5       30.06R
CAMP DOUGLAS   SUNNY     66  66 100 SE6       30.03F
$$

WIZ011>013-019>022-031-037>040-048>050-051400-
NORTHEAST WISCONSIN

CITY           SKY/WX    TMP DP  RH WIND       PRES   REMARKS
ANTIGO         MOSUNNY   66  63  89 SW3       30.06S
SHAWANO        SUNNY     68  63  84 SW3       30.06R
OCONTO         SUNNY     68  66  95 SW5       30.04S
STURGEON BAY   SUNNY     68  61  77 S6        30.07S
GREEN BAY      SUNNY     69  65  86 S5        30.05S FOG
MANITOWOC      SUNNY     66  62  87 MISG      30.07R
APPLETON       MOSUNNY   70  61  73 SW7       30.06S
CLINTONVILLE   SUNNY     68  63  83 CALM      30.04F
OSHKOSH        SUNNY     69  62  78 S6        30.06R
$$

WIZ032>034-041-042-053>061-051400-
SOUTHWEST WISCONSIN

CITY           SKY/WX    TMP DP  RH WIND       PRES   REMARKS
LA CROSSE      SUNNY     69  62  78 S9        30.02R
SPARTA         SUNNY     65  61  85 CALM      30.03R
VIROQUA        SUNNY     67  61  82 S8        30.04S
BOSCOBEL       MOSUNNY   64  63  96 CALM      30.04F FOG
PRAIRIE DU CHI SUNNY     66  60  82 CALM      30.04R
PLATTEVILLE    SUNNY     66  64  92 SE6       30.06S
$$

WIZ056-057-062-063-064-067-068-051400-
SOUTH CENTRAL WISCONSIN

CITY           SKY/WX    TMP DP  RH WIND       PRES   REMARKS
REEDSBURG      SUNNY     65  62  87 CALM      30.05F
BARABOO/DELLS  SUNNY     67  62  84 S5        30.06F
LONE ROCK      SUNNY     65  61  87 E5        30.06S
MINERAL POINT  SUNNY     66  63  88 S6        30.07S
MADISON        SUNNY     70  62  76 S3        30.07R
MIDDLETON      SUNNY     70  62  74 S5        30.07S
WATERTOWN      SUNNY     65  65 100 CALM      30.07S FOG
MONROE         SUNNY     66  61  82 S5        30.08R
JANESVILLE     SUNNY     66  64  94 CALM      30.07S
$$

WIZ051-052-058>065-066-070>072-051400-
SOUTHEAST WISCONSIN

CITY           SKY/WX    TMP DP  RH WIND       PRES   REMARKS
MILWAUKEE      MOSUNNY   71  60  68 SW7       30.08S
WAUKESHA       SUNNY     66  61  82 SW6       30.09F
MILWAUKEE/TIMM SUNNY     68  59  73 CALM      30.08F
RACINE         SUNNY     70  60  70 W5        30.10S
BURLINGTON     SUNNY     62  62  99 CALM      30.09S FOG
KENOSHA        SUNNY     69  61  75 SW5       30.10R HAZE
FOND DU LAC    SUNNY     69  63  81 SW7       30.07S
SHEBOYGAN      SUNNY     69  63  81 SW5       30.07S
WEST BEND      SUNNY     70  61  73 CALM      30.08S
JUNEAU         SUNNY     66  62  85 CALM      30.09S
$$

LSZ147-162-051400-
LAKE SUPERIOR

STATION/POSITION TIME  TEMP    WIND        PRES    WAVE
                       AIR SEA DIR/SP/G            HT/PER
                 (UTC) (F)     (DEG/KT/KT) (MB)    (FT/S)
W MID LAKE BUOY  1250   47 39  190/ 12/ 12 1012.8F   0
DEVILS ISLAND    1300   65     210/  7/  9 1012.9F
SAXON HARBOR     1240   70     200/  4/  8 1013.5S
$$

LMZ867-665-643>646-051400-
LAKE MICHIGAN

STATION/POSITION TIME  TEMP    WIND        PRES    WAVE
                       AIR SEA DIR/SP/G            HT/PER
                 (UTC) (F)     (DEG/KT/KT) (MB)    (FT/S)
CHAMBERS ISLAND  1200   66     170/  5/  9 1017.3R
S GREEN BAY BUOY 1200   69 69  230/ 10/ 12 1018.7R
N MID LAKE BUOY  1250   51 44  190/  8/ 10 1017.9F   0
NORTHPORT PIER   1200   63     160/  5/  7 1017.3S
SISTER BAY       1229   66     170/  8/ 10   N/A
ALGOMA LAKESHORE 1226             CALM       N/A
KEWAUNEE LAKESHO 1200   61      CALM  /  1 1017.1R
SHEBOYGAN LAKESH 1300   65     170/  8/  9 1018.4S
PORT WASHINGTON  1200   68     240/  2/  2 1019.0
ATWATER BUOY     1300   63 60  120/  4/  4 1019.8R
MILWAUKEE LAKESH 1300   67     160/  4/  5   N/A
KENOSHA   LAKESH 1300   70     260/  5/  7 1018.6S
$$

TC  - TEMPERATURE IN CELSIUS
VSB - VISIBILITY IN STATUTE MILES
WCI - WIND CHILL INDEX
HX  - HEAT INDEX



USA.gov is the U.S. government's official web portal to all federal, state and local government web resources and services.